{"data":{"norad_id":43029,"epoch":"2026-05-25T03:35:22.017696Z","epoch_age_seconds":55316,"freshness":"FRESH","line1":"1 43029U 17075B   26145.14956039  .00002474  00000+0  18445-3 0  9994","line2":"2 43029  34.9948  50.6350 0002878  17.2941 342.7864 15.02560492463893","mean_motion":15.02560492,"eccentricity":0.0002878,"inclination_deg":34.9948,"raan_deg":50.635,"arg_perigee_deg":17.2941,"mean_anomaly_deg":342.7864,"bstar":0.00018445,"rev_number":46389,"period_min":95.836407763076,"perigee_km":557.00763872962,"apogee_km":561.00065717438,"semimajor_km":6937.141147952,"source":"CELESTRAK","updated_at":"2026-05-25T13:37:55.756834Z"}}